Regional Weather Roundup
Issued by NWS

Home | Current Version | Previous Version | Text Only | Print | Product List | Glossary Off
Versions: 1 2 3 4 5 6 7 8 9 10 11 12 13 14 15 16 17 18 19 20 21 22 23 24 25 26 27 28 29 30 31 32 33 34 35 36 37 38 39 40 41 42 43 44 45 46 47 48 49 50

000
ASUS43 KLOT 301100
RWRIL

ILLINOIS REGIONAL WEATHER ROUNDUP
NATIONAL WEATHER SERVICE CHICAGO/ROMEOVILLE IL
600 AM CDT THU JUL 30 2015

NOTE: "FAIR" INDICATES FEW OR NO CLOUDS BELOW 12,000 FEET WITH NO
SIGNIFICANT WEATHER AND/OR OBSTRUCTIONS TO VISIBILITY.

* THESE STATIONS ARE NOT UNDER NWS QUALITY CONTROL. THEY ALSO MAY NOT
  REPORT WEATHER SUCH AS PRECIPITATION OR FOG.

ILZ001-002-007-009-015-016-024-301200-
NORTHWEST ILLINOIS

CITY           SKY/WX    TMP DP  RH WIND       PRES   REMARKS
MOLINE         CLEAR     61  57  87 SW5       30.10R
STERLING*      CLEAR     61  57  88 W7        30.07S
$$

ILZ003-004-008-010-011-017-018-301200-
NORTH CENTRAL ILLINOIS

CITY           SKY/WX    TMP DP  RH WIND       PRES   REMARKS
ROCKFORD       CLEAR     64  57  78 CALM      30.07R
$$

ILZ005-006-012>014-019>023-301200-
NORTHEAST ILLINOIS

CITY           SKY/WX    TMP DP  RH WIND       PRES   REMARKS
CHICAGO-OHARE  CLEAR     65  58  78 W5        30.04R
CHICAGO-MIDWAY CLEAR     69  57  65 W7        30.04R
AURORA         CLEAR     58  55  90 W5        30.06R
LANSING*       CLEAR     64  55  73 W5        30.05R
WAUKEGAN       CLEAR     65  57  75 SW5       30.01R
DUPAGE AIRPORT CLEAR     63  58  83 W6        30.05R
WHEELING       CLEAR     67  57  70 W5        30.05R
NORTHERLY ISL    N/A     71  57  61 W9          N/A
$$

LMZ740>746-301200-
SOUTHERN LAKE MICHIGAN

STATION/POSITION SKY/WX   TEMP    WIND        PRES    VSBY  WAVE
                          AIR SEA DIR/SP/G                  HT/PER
                          (F)     (DEG/KT/KT) (MB)    (MI)  (FT/S)
HARRISON CRIB              71     270/ 15/ 18   N/A
BURNHAM HARBOR             71     280/  8/ 12   N/A
BURNS HARBOR               72     270/ 15/ 17 1016.9R
MICHIGAN CITY              72     240/ 15/ 17   N/A
MICHIGAN CITY 6N           74 73  290/ 14/ 17   N/A           3/ 4
ST. JOSEPH                 73 73  330/ 14/ 16   N/A           3/ 4
$$

ILZ025>027-034>036-040-047-049-050-058-095>099-301200-
WEST-CENTRAL ILLINOIS

CITY           SKY/WX    TMP DP  RH WIND       PRES   REMARKS
QUINCY         CLEAR     65  60  84 W6        30.14R
MACOMB*        CLEAR     61  59  95 W6        30.14S
$$

ILZ028>032-037-038-041>044-048-051>054-059>061-301200-
CENTRAL ILLINOIS

CITY           SKY/WX    TMP DP  RH WIND       PRES   REMARKS
DECATUR        CLEAR     69  59  70 NW9       30.11R
PEORIA         CLEAR     71  57  61 W5        30.11R
SPRINGFIELD    CLEAR     63  59  87 W5        30.12S
TAYLORVILLE    NOT AVBL
$$

ILZ033-039-045-046-055>057-062-063-301200-
EAST-CENTRAL ILLINOIS

CITY           SKY/WX    TMP DP  RH WIND       PRES   REMARKS
CHAMPAIGN      CLEAR     61  59  93 W6        30.10S
MATTOON        CLEAR     63  58  83 NW8       30.09S
$$

ILZ079-100>102-301200-
SOUTHWEST ILLINOIS

CITY           SKY/WX    TMP DP  RH WIND       PRES   REMARKS
BELLEVILLE     CLEAR     66  61  84 N3        30.12R
CAHOKIA*       CLEAR     64  61  90 CALM      30.13R
SPARTA*        CLEAR     67  61  80 CALM      30.13R
$$

ILZ064>066-069>071-074>076-080>082-084>086-088>090-092>094-301200-
SOUTH-CENTRAL ILLINOIS

CITY           SKY/WX    TMP DP  RH WIND       PRES   REMARKS
CARBONDALE     CLEAR     66  64  93 CALM      30.12R
MT. VERNON     CLEAR     64  55  72 NE3       30.12R
SALEM*         CLEAR     65  61  84 CALM      30.12R
$$

ILZ067-068-072-073-078-083-087-091-301200-
SOUTHEAST ILLINOIS

CITY           SKY/WX    TMP DP  RH WIND       PRES   REMARKS
LAWRENCEVILLE  CLEAR     64  60  87 NW6       30.09R
HARRISBURG*    CLEAR     65  63  93 CALM      30.12R
$$

ABBREVIATIONS USED IN REMARKS
   TC - TEMPERATURE IN CELSIUS
  WCI - WIND CHILL INDEX
   HX - HEAT INDEX
  VSB - VISIBILITY
$$



USA.gov is the U.S. government's official web portal to all federal, state and local government web resources and services.